DLH525 EDDS-LIMC

Flight info

Callsign DLH525
Flight time 0h 48m
Altitude 27000
Route ROTWE5B ROTWE Y126 TUBLO N850 NATOR DCT TRA DCT BASGO Z424 RIXUV
Aircraft A20N/M-SDE2E3FGHIRWXY/LB1

Departure

Time 2026-05-05 16:02
Airport Stuttgart Airport (EDDS)

Arrival

Time 2026-05-05 16:50
Airport Milan Malpensa International Airport (LIMC)
Time Latitude Longitude Altitude Speed Heading
2026-05-05 15:35 48.68954 9.19715 1307 ft 0 kts 345°
2026-05-05 15:51 48.68943 9.19720 1306 ft 2 kts 345°
2026-05-05 15:51 48.68928 9.19726 1306 ft 2 kts 345°
2026-05-05 15:52 48.68914 9.19731 1305 ft 2 kts 345°
2026-05-05 15:52 48.68899 9.19737 1304 ft 2 kts
2026-05-05 15:52 48.68885 9.19732 1304 ft 2 kts 27°
2026-05-05 15:52 48.68873 9.19718 1304 ft 2 kts 53°
2026-05-05 15:53 48.68868 9.19704 1304 ft 0 kts 71°
2026-05-05 15:53 48.68866 9.19693 1305 ft 0 kts 74°
2026-05-05 15:55 48.68881 9.19775 1302 ft 16 kts 75°
2026-05-05 15:56 48.68874 9.19872 1298 ft 8 kts 144°
2026-05-05 15:56 48.68816 9.19935 1293 ft 9 kts 102°
2026-05-05 15:56 48.68841 9.20033 1290 ft 11 kts 78°
2026-05-05 15:56 48.68865 9.20171 1286 ft 15 kts 73°
2026-05-05 15:57 48.68900 9.20348 1279 ft 19 kts 74°
2026-05-05 15:57 48.68940 9.20566 1271 ft 23 kts 74°
2026-05-05 15:57 48.68989 9.20815 1262 ft 25 kts 72°
2026-05-05 15:57 48.69040 9.21066 1254 ft 24 kts 73°
2026-05-05 15:58 48.69083 9.21319 1249 ft 25 kts 75°
2026-05-05 15:58 48.69131 9.21575 1247 ft 25 kts 73°
2026-05-05 15:58 48.69181 9.21827 1242 ft 24 kts 74°
2026-05-05 15:58 48.69226 9.22076 1234 ft 24 kts 73°
2026-05-05 15:59 48.69276 9.22329 1228 ft 25 kts 72°
2026-05-05 15:59 48.69327 9.22597 1222 ft 27 kts 73°
2026-05-05 15:59 48.69381 9.22873 1215 ft 27 kts 77°
2026-05-05 15:59 48.69431 9.23160 1206 ft 28 kts 73°
2026-05-05 16:00 48.69488 9.23446 1201 ft 28 kts 73°
2026-05-05 16:00 48.69544 9.23736 1196 ft 28 kts 73°
2026-05-05 16:00 48.69594 9.24005 1192 ft 16 kts 75°
2026-05-05 16:00 48.69606 9.24149 1189 ft 14 kts 109°
2026-05-05 16:01 48.69545 9.24293 1183 ft 18 kts 152°
2026-05-05 16:01 48.69442 9.24332 1179 ft 15 kts 175°
2026-05-05 16:01 48.69376 9.24230 1181 ft 16 kts 251°
2026-05-05 16:01 48.69312 9.23898 1187 ft 64 kts 253°
2026-05-05 16:02 48.69125 9.22916 1210 ft 128 kts 254°
2026-05-05 16:02 48.68842 9.21405 1445 ft 159 kts 254°
2026-05-05 16:02 48.68557 9.19785 2048 ft 162 kts 255°
2026-05-05 16:02 48.68262 9.18140 2681 ft 167 kts 256°
2026-05-05 16:03 48.67946 9.16482 3378 ft 166 kts 255°
2026-05-05 16:03 48.67614 9.14746 3807 ft 180 kts 254°
2026-05-05 16:03 48.67249 9.12830 4174 ft 200 kts 254°
2026-05-05 16:03 48.66839 9.10697 4521 ft 224 kts 253°
2026-05-05 16:04 48.66390 9.08366 5026 ft 242 kts 253°
2026-05-05 16:04 48.65899 9.05834 5575 ft 258 kts 253°
2026-05-05 16:04 48.65393 9.03228 6378 ft 264 kts 252°
2026-05-05 16:04 48.64877 9.00573 7292 ft 265 kts 252°
2026-05-05 16:05 48.64352 8.97889 8143 ft 269 kts 252°
2026-05-05 16:05 48.63829 8.95214 8976 ft 271 kts 252°
2026-05-05 16:05 48.63295 8.92475 9803 ft 275 kts 252°
2026-05-05 16:05 48.62753 8.89703 10458 ft 283 kts 252°
2026-05-05 16:06 48.62111 8.86774 10858 ft 300 kts 246°
2026-05-05 16:06 48.61079 8.83949 11202 ft 317 kts 231°
2026-05-05 16:06 48.59390 8.81687 11521 ft 334 kts 217°
2026-05-05 16:06 48.57510 8.79529 11831 ft 351 kts 218°
2026-05-05 16:07 48.55523 8.77206 12119 ft 368 kts 218°
2026-05-05 16:07 48.53480 8.74803 12574 ft 377 kts 218°
2026-05-05 16:07 48.51407 8.72359 13220 ft 381 kts 218°
2026-05-05 16:07 48.49322 8.69901 13862 ft 384 kts 218°
2026-05-05 16:08 48.47249 8.67458 14516 ft 386 kts 218°
2026-05-05 16:08 48.45120 8.64952 15106 ft 389 kts 218°
2026-05-05 16:08 48.42994 8.62453 15669 ft 394 kts 218°
2026-05-05 16:08 48.40831 8.59912 16231 ft 397 kts 218°
2026-05-05 16:09 48.38654 8.57356 16777 ft 401 kts 218°
2026-05-05 16:09 48.36430 8.54747 17294 ft 405 kts 218°
2026-05-05 16:09 48.34219 8.52156 17809 ft 408 kts 218°
2026-05-05 16:09 48.31984 8.49540 18317 ft 411 kts 218°
2026-05-05 16:10 48.29718 8.46888 18803 ft 415 kts 217°
2026-05-05 16:10 48.27456 8.44246 19284 ft 418 kts 217°
2026-05-05 16:10 48.25156 8.41562 19761 ft 421 kts 217°
2026-05-05 16:10 48.22855 8.38881 20244 ft 423 kts 217°
2026-05-05 16:11 48.20514 8.36169 20714 ft 426 kts 216°
2026-05-05 16:11 48.12059 8.33280 22021 ft 433 kts 171°
2026-05-05 16:12 48.09094 8.34017 22664 ft 431 kts 171°
2026-05-05 16:12 48.03210 8.35487 23955 ft 427 kts 171°
2026-05-05 16:13 47.94524 8.37609 25671 ft 424 kts 171°
2026-05-05 16:13 47.91576 8.38320 25856 ft 426 kts 171°
2026-05-05 16:13 47.88654 8.39021 25866 ft 426 kts 171°
2026-05-05 16:14 47.82815 8.40421 25861 ft 426 kts 171°
2026-05-05 16:14 47.76983 8.41818 25877 ft 425 kts 171°
2026-05-05 16:15 47.71115 8.43169 26497 ft 429 kts 173°
2026-05-05 16:15 47.65181 8.43840 26857 ft 427 kts 179°
2026-05-05 16:16 47.59259 8.43984 26867 ft 427 kts 180°
2026-05-05 16:16 47.53345 8.44141 26875 ft 426 kts 180°
2026-05-05 16:17 47.47411 8.44293 26868 ft 427 kts 180°
2026-05-05 16:17 47.44444 8.44370 26867 ft 427 kts 180°
2026-05-05 16:18 47.38518 8.44521 26874 ft 426 kts 180°
2026-05-05 16:18 47.35559 8.44596 26874 ft 426 kts 180°
2026-05-05 16:18 47.29660 8.44744 26876 ft 426 kts 180°
2026-05-05 16:19 47.26691 8.44820 26875 ft 426 kts 180°
2026-05-05 16:19 47.23741 8.44893 26883 ft 426 kts 180°
2026-05-05 16:19 47.17799 8.45042 26878 ft 426 kts 181°
2026-05-05 16:20 47.11907 8.45188 26886 ft 426 kts 181°
2026-05-05 16:20 47.05969 8.45337 26888 ft 426 kts 181°
2026-05-05 16:21 47.00025 8.45485 26893 ft 427 kts 181°
2026-05-05 16:22 46.91146 8.45706 26910 ft 427 kts 181°
2026-05-05 16:22 46.85204 8.45853 26923 ft 426 kts 181°
2026-05-05 16:23 46.79291 8.46001 26905 ft 425 kts 182°
2026-05-05 16:23 46.76314 8.46074 26907 ft 425 kts 182°
2026-05-05 16:23 46.70417 8.46217 26903 ft 425 kts 182°
2026-05-05 16:24 46.67504 8.46288 26912 ft 424 kts 182°
2026-05-05 16:24 46.64537 8.46360 26904 ft 424 kts 182°
2026-05-05 16:24 46.58633 8.46504 26904 ft 423 kts 182°
2026-05-05 16:25 46.55732 8.46578 26913 ft 423 kts 182°
2026-05-05 16:25 46.49857 8.46717 26488 ft 420 kts 182°
2026-05-05 16:25 46.46949 8.46787 26227 ft 418 kts 182°
2026-05-05 16:26 46.41161 8.46925 25406 ft 414 kts 182°
2026-05-05 16:26 46.35419 8.47056 24000 ft 416 kts 181°
2026-05-05 16:27 46.32509 8.47125 23192 ft 416 kts 181°
2026-05-05 16:27 46.29637 8.47197 22361 ft 418 kts 181°
2026-05-05 16:27 46.26730 8.47380 21500 ft 420 kts 179°
2026-05-05 16:27 46.23832 8.47771 20863 ft 419 kts 177°
2026-05-05 16:28 46.20945 8.48183 20286 ft 416 kts 177°
2026-05-05 16:28 46.18071 8.48584 19692 ft 411 kts 177°
2026-05-05 16:28 46.15272 8.48978 19107 ft 407 kts 177°
2026-05-05 16:28 46.12472 8.49523 18525 ft 404 kts 172°
2026-05-05 16:29 46.09775 8.50420 18141 ft 396 kts 167°
2026-05-05 16:29 46.07204 8.51629 17978 ft 382 kts 163°
2026-05-05 16:29 46.04767 8.52936 17970 ft 363 kts 163°
2026-05-05 16:29 46.02471 8.54176 17949 ft 346 kts 163°
2026-05-05 16:30 46.00264 8.55368 17954 ft 328 kts 163°
2026-05-05 16:30 45.98187 8.56486 17971 ft 314 kts 163°
2026-05-05 16:30 45.96151 8.57578 17982 ft 311 kts 163°
2026-05-05 16:30 45.94131 8.58654 17967 ft 312 kts 163°
2026-05-05 16:31 45.92096 8.59743 17981 ft 312 kts 163°
2026-05-05 16:31 45.90111 8.61021 17986 ft 316 kts 155°
2026-05-05 16:31 45.88251 8.62736 17946 ft 310 kts 147°
2026-05-05 16:31 45.86606 8.64610 17971 ft 297 kts 146°
2026-05-05 16:32 45.85008 8.66479 17970 ft 295 kts 146°
2026-05-05 16:32 45.83448 8.68300 17751 ft 290 kts 147°
2026-05-05 16:32 45.81887 8.70117 17234 ft 290 kts 147°
2026-05-05 16:32 45.80307 8.71944 16706 ft 290 kts 147°
2026-05-05 16:33 45.78754 8.73738 16277 ft 290 kts 146°
2026-05-05 16:33 45.77177 8.75505 15916 ft 287 kts 149°
2026-05-05 16:33 45.75521 8.77085 15560 ft 283 kts 154°
2026-05-05 16:33 45.73810 8.78459 15196 ft 281 kts 156°
2026-05-05 16:34 45.72115 8.79763 14836 ft 279 kts 156°
2026-05-05 16:34 45.70403 8.81076 14473 ft 278 kts 156°
2026-05-05 16:34 45.68700 8.82383 14115 ft 277 kts 156°
2026-05-05 16:34 45.67012 8.83678 13752 ft 276 kts 156°
2026-05-05 16:35 45.65308 8.84986 13398 ft 275 kts 156°
2026-05-05 16:35 45.63644 8.86264 13072 ft 273 kts 156°
2026-05-05 16:35 45.61945 8.87422 12735 ft 269 kts 163°
2026-05-05 16:35 45.60173 8.88165 12401 ft 264 kts 171°
2026-05-05 16:36 45.58375 8.88677 12066 ft 262 kts 173°
2026-05-05 16:36 45.56583 8.89151 11719 ft 261 kts 172°
2026-05-05 16:36 45.54801 8.89621 11365 ft 260 kts 172°
2026-05-05 16:36 45.53034 8.90095 11021 ft 259 kts 171°
2026-05-05 16:37 45.51269 8.90573 10684 ft 257 kts 171°
2026-05-05 16:37 45.49516 8.91049 10347 ft 256 kts 171°
2026-05-05 16:37 45.47774 8.91525 10009 ft 255 kts 171°
2026-05-05 16:37 45.46058 8.91993 9671 ft 253 kts 171°
2026-05-05 16:38 45.44326 8.92462 9318 ft 253 kts 171°
2026-05-05 16:38 45.42593 8.92931 8977 ft 251 kts 171°
2026-05-05 16:38 45.40892 8.93393 8641 ft 250 kts 171°
2026-05-05 16:38 45.39175 8.93857 8295 ft 250 kts 170°
2026-05-05 16:39 45.37474 8.94318 7953 ft 249 kts 170°
2026-05-05 16:39 45.35794 8.94777 7654 ft 246 kts 170°
2026-05-05 16:39 45.34127 8.95228 7391 ft 242 kts 170°
2026-05-05 16:39 45.32491 8.95672 7099 ft 238 kts 170°
2026-05-05 16:40 45.30889 8.96105 6845 ft 234 kts 170°
2026-05-05 16:40 45.29293 8.96536 6621 ft 229 kts 170°
2026-05-05 16:40 45.27738 8.96898 6373 ft 223 kts 180°
2026-05-05 16:40 45.26276 8.96390 6108 ft 221 kts 212°
2026-05-05 16:41 45.25247 8.94779 5850 ft 223 kts 245°
2026-05-05 16:41 45.24869 8.92677 5531 ft 222 kts 260°
2026-05-05 16:41 45.24795 8.90480 5088 ft 225 kts 280°
2026-05-05 16:41 45.25449 8.88527 4822 ft 217 kts 307°
2026-05-05 16:42 45.26416 8.86944 4534 ft 211 kts 312°
2026-05-05 16:42 45.27404 8.85494 4286 ft 199 kts 313°
2026-05-05 16:42 45.28447 8.84236 3847 ft 199 kts 324°
2026-05-05 16:42 45.29610 8.83190 3422 ft 199 kts 330°
2026-05-05 16:43 45.30868 8.82378 3111 ft 195 kts 341°
2026-05-05 16:43 45.32155 8.81855 2985 ft 195 kts 348°
2026-05-05 16:43 45.33490 8.81465 2952 ft 194 kts 350°
2026-05-05 16:43 45.34810 8.81113 2951 ft 193 kts 350°
2026-05-05 16:44 45.36140 8.80760 2948 ft 189 kts 350°
2026-05-05 16:44 45.37393 8.80424 2942 ft 183 kts 350°
2026-05-05 16:44 45.38639 8.80086 2950 ft 182 kts 350°
2026-05-05 16:44 45.39885 8.79746 2954 ft 182 kts 350°
2026-05-05 16:45 45.41143 8.79400 2957 ft 182 kts 350°
2026-05-05 16:45 45.42390 8.79055 2958 ft 183 kts 350°
2026-05-05 16:45 45.43640 8.78709 2958 ft 183 kts 350°
2026-05-05 16:45 45.44889 8.78363 2959 ft 183 kts 350°
2026-05-05 16:46 45.46142 8.78016 2958 ft 183 kts 350°
2026-05-05 16:46 45.47392 8.77669 2961 ft 183 kts 350°
2026-05-05 16:46 45.48633 8.77326 2958 ft 180 kts 350°
2026-05-05 16:46 45.49802 8.77002 2952 ft 161 kts 350°
2026-05-05 16:47 45.50873 8.76705 2848 ft 155 kts 350°
2026-05-05 16:47 45.51926 8.76414 2635 ft 152 kts 350°
2026-05-05 16:47 45.52921 8.76139 2408 ft 140 kts 350°
2026-05-05 16:47 45.53874 8.75876 2225 ft 138 kts 350°
2026-05-05 16:48 45.54817 8.75616 2047 ft 137 kts 349°
2026-05-05 16:48 45.55742 8.75349 1879 ft 137 kts 349°
2026-05-05 16:48 45.56676 8.75097 1700 ft 136 kts 349°
2026-05-05 16:48 45.57610 8.74846 1501 ft 135 kts 349°
2026-05-05 16:49 45.58532 8.74589 1313 ft 134 kts 349°
2026-05-05 16:49 45.59439 8.74330 1143 ft 134 kts 350°
2026-05-05 16:49 45.60357 8.74089 963 ft 133 kts 350°
2026-05-05 16:49 45.61269 8.73832 800 ft 133 kts 349°
2026-05-05 16:50 45.62165 8.73585 711 ft 128 kts 349°
2026-05-05 16:50 45.62895 8.73384 722 ft 82 kts 349°
2026-05-05 16:50 45.63293 8.73276 731 ft 40 kts 351°
2026-05-05 16:50 45.63541 8.73204 737 ft 30 kts 349°
2026-05-05 16:51 45.63686 8.73121 742 ft 19 kts 323°
2026-05-05 16:51 45.63749 8.73034 744 ft 10 kts 315°
2026-05-05 16:51 45.63800 8.72962 746 ft 9 kts 315°
2026-05-05 16:51 45.63837 8.72896 747 ft 8 kts 303°
2026-05-05 16:52 45.63878 8.72804 748 ft 14 kts 302°
2026-05-05 16:52 45.63940 8.72668 752 ft 16 kts 302°
2026-05-05 16:52 45.63962 8.72527 753 ft 15 kts 257°
2026-05-05 16:52 45.63938 8.72348 754 ft 21 kts 259°
2026-05-05 16:53 45.63916 8.72112 756 ft 26 kts 269°
2026-05-05 16:53 45.63892 8.71887 760 ft 18 kts 237°
2026-05-05 16:53 45.63765 8.71835 758 ft 25 kts 170°
2026-05-05 16:53 45.63589 8.71884 754 ft 26 kts 169°
2026-05-05 16:54 45.63419 8.71930 751 ft 21 kts 171°
2026-05-05 16:54 45.63273 8.71964 749 ft 21 kts 168°
2026-05-05 16:54 45.63110 8.72011 746 ft 25 kts 168°
2026-05-05 16:54 45.62922 8.72066 741 ft 29 kts 168°
2026-05-05 16:55 45.62753 8.72112 736 ft 19 kts 168°
2026-05-05 16:55 45.62696 8.72093 736 ft 2 kts 249°
2026-05-05 16:55 45.62676 8.72006 737 ft 15 kts 262°
2026-05-05 16:55 45.62655 8.71866 740 ft 12 kts 238°
2026-05-05 16:56 45.62593 8.71801 741 ft 8 kts 232°
2026-05-05 16:56 45.62573 8.71761 742 ft 2 kts 234°
2026-05-05 16:56 45.62561 8.71740 742 ft 2 kts 234°
2026-05-05 16:56 45.62557 8.71730 742 ft 1 kts 233°
2026-05-05 16:57 45.62553 8.71724 742 ft 0 kts 233°